�������l�o���
Date,Time,MP-1(��Sv/h),MP-2(��Sv/h),MP-3(��Sv/h),MP-4(��Sv/h),MP-5(��Sv/h),MP-6(��Sv/h),MP-7(��Sv/h),����,����(m/s),���J
2022/07/11,00:00,0.149,0.140,0.220,0.214,0.212,0.119,0.076,��,4.4,��
2022/07/11,00:10,0.151,0.139,0.224,0.214,0.215,0.118,0.076,��,4.8,��
2022/07/11,00:20,0.150,0.141,0.222,0.213,0.215,0.119,0.075,��,4.5,��
2022/07/11,00:30,0.149,0.140,0.222,0.213,0.212,0.118,0.076,��,3.8,��
2022/07/11,00:40,0.152,0.139,0.224,0.214,0.214,0.117,0.076,��,4.8,��
2022/07/11,00:50,0.150,0.140,0.221,0.211,0.214,0.119,0.076,��,5.5,��
2022/07/11,01:00,0.148,0.140,0.221,0.213,0.213,0.119,0.077,��,4.5,��
2022/07/11,01:10,0.150,0.139,0.224,0.215,0.213,0.118,0.076,��,4.4,��
2022/07/11,01:20,0.150,0.140,0.221,0.212,0.215,0.119,0.076,��쐼,2.9,��
2022/07/11,01:30,0.149,0.139,0.223,0.213,0.213,0.119,0.076,��쐼,2.0,��
2022/07/11,01:40,0.151,0.140,0.223,0.214,0.214,0.118,0.075,��,1.9,��
2022/07/11,01:50,0.151,0.141,0.221,0.213,0.216,0.118,0.076,��쐼,1.6,��
2022/07/11,02:00,0.150,0.140,0.222,0.214,0.214,0.119,0.075,��,1.9,��
2022/07/11,02:10,0.151,0.139,0.223,0.215,0.213,0.118,0.075,��,1.3,��
2022/07/11,02:20,0.150,0.140,0.222,0.212,0.216,0.119,0.077,��쐼,1.5,��
2022/07/11,02:30,0.150,0.139,0.224,0.215,0.215,0.119,0.076,�쐼,1.3,��
2022/07/11,02:40,0.151,0.142,0.222,0.214,0.215,0.119,0.077,-,CALM,��
2022/07/11,02:50,0.151,0.140,0.222,0.214,0.216,0.121,0.077,�k��,2.4,��
2022/07/11,03:00,0.151,0.140,0.225,0.216,0.215,0.120,0.078,�k�k��,3.5,��
2022/07/11,03:10,0.152,0.143,0.223,0.215,0.217,0.120,0.077,�k�k��,3.8,��
2022/07/11,03:20,0.151,0.141,0.225,0.216,0.217,0.121,0.078,�k�k��,3.5,��
2022/07/11,03:30,0.151,0.141,0.225,0.216,0.215,0.120,0.078,�k�k��,4.7,��
2022/07/11,03:40,0.152,0.142,0.222,0.214,0.216,0.120,0.078,�k�k��,3.7,��
2022/07/11,03:50,0.153,0.141,0.225,0.215,0.218,0.120,0.078,�k,3.6,��
2022/07/11,04:00,0.150,0.140,0.224,0.216,0.214,0.120,0.078,�k�k��,3.0,��
2022/07/11,04:10,0.151,0.141,0.222,0.213,0.215,0.118,0.078,�k�k��,4.2,��
2022/07/11,04:20,0.151,0.139,0.223,0.213,0.216,0.119,0.077,�k�k��,3.9,��
2022/07/11,04:30,0.149,0.139,0.223,0.215,0.213,0.119,0.076,�k�k��,4.3,��
2022/07/11,04:40,0.150,0.140,0.221,0.212,0.212,0.118,0.076,�k,3.6,��
2022/07/11,04:50,0.150,0.139,0.223,0.213,0.216,0.117,0.076,�k,3.8,��
2022/07/11,05:00,0.150,0.139,0.223,0.215,0.214,0.118,0.076,�k,4.2,��
2022/07/11,05:10,0.149,0.140,0.220,0.213,0.211,0.118,0.076,�k,4.8,��
2022/07/11,05:20,0.151,0.139,0.222,0.212,0.215,0.118,0.076,�k,4.6,��
2022/07/11,05:30,0.150,0.139,0.223,0.214,0.215,0.118,0.076,�k,5.2,�L
2022/07/11,05:40,0.150,0.140,0.220,0.212,0.212,0.118,0.076,�k,5.1,�L
2022/07/11,05:50,0.151,0.139,0.223,0.212,0.215,0.118,0.076,�k�k��,5.3,�L
2022/07/11,06:00,0.150,0.140,0.222,0.215,0.216,0.119,0.076,�k�k��,5.2,�L
2022/07/11,06:10,0.150,0.139,0.221,0.212,0.213,0.119,0.076,�k,3.2,�L
2022/07/11,06:20,0.150,0.139,0.224,0.213,0.215,0.118,0.077,�k�k��,4.4,�L
2022/07/11,06:30,0.150,0.141,0.222,0.215,0.216,0.119,0.076,�k�k��,4.0,�L
2022/07/11,06:40,0.151,0.140,0.222,0.212,0.213,0.119,0.076,�k��,3.6,�L
2022/07/11,06:50,0.151,0.139,0.223,0.213,0.213,0.118,0.077,�k��,2.9,�L
2022/07/11,07:00,0.150,0.140,0.222,0.216,0.216,0.118,0.077,�k�k��,3.4,�L
2022/07/11,07:10,0.150,0.140,0.220,0.212,0.215,0.118,0.077,�k�k��,2.5,�L
2022/07/11,07:20,0.151,0.140,0.223,0.213,0.213,0.118,0.077,�k,3.0,�L
2022/07/11,07:30,0.150,0.141,0.221,0.215,0.216,0.119,0.076,�k,3.4,�L
2022/07/11,07:40,0.150,0.139,0.221,0.213,0.213,0.119,0.077,�k,3.0,�L
2022/07/11,07:50,0.150,0.140,0.223,0.212,0.213,0.118,0.077,�k�k��,3.6,�L
2022/07/11,08:00,0.149,0.141,0.222,0.215,0.214,0.119,0.076,�k,3.7,�L
2022/07/11,08:10,0.150,0.138,0.221,0.214,0.215,0.119,0.076,�k,2.8,��
2022/07/11,08:20,0.152,0.140,0.223,0.211,0.213,0.119,0.076,�k�k��,3.3,��
2022/07/11,08:30,0.151,0.141,0.222,0.214,0.212,0.119,0.077,�k,3.3,��
2022/07/11,08:40,0.149,0.140,0.220,0.215,0.214,0.119,0.076,�k�k��,2.8,��
2022/07/11,08:50,0.150,0.139,0.220,0.212,0.215,0.119,0.075,�k��,4.1,��
2022/07/11,09:00,0.149,0.141,0.223,0.212,0.214,0.118,0.076,�k�k��,2.7,��
2022/07/11,09:10,0.149,0.140,0.222,0.213,0.211,0.118,0.077,�k�k��,3.1,�L
2022/07/11,09:20,0.149,0.139,0.221,0.214,0.213,0.118,0.077,�k��,3.6,��
2022/07/11,09:30,0.150,0.139,0.221,0.212,0.216,0.119,0.076,�k�k��,2.9,��
2022/07/11,09:40,0.149,0.141,0.223,0.212,0.214,0.118,0.076,�k�k��,3.5,��
2022/07/11,09:50,0.148,0.140,0.222,0.214,0.211,0.118,0.076,�k�k��,4.1,��
2022/07/11,10:00,0.151,0.139,0.220,0.214,0.215,0.120,0.076,�k,2.8,��
2022/07/11,10:10,0.151,0.140,0.222,0.213,0.216,0.119,0.076,�k�k��,2.9,�L
2022/07/11,10:20,0.149,0.139,0.222,0.212,0.213,0.118,0.077,�k�k��,3.3,�L
2022/07/11,10:30,0.149,0.138,0.220,0.214,0.211,0.118,0.076,�k,3.0,��
2022/07/11,10:40,0.152,0.140,0.222,0.213,0.214,0.119,0.076,�k�k��,2.6,��
2022/07/11,10:50,0.150,0.140,0.224,0.211,0.215,0.119,0.075,�k��,2.3,��
2022/07/11,11:00,0.149,0.139,0.221,0.213,0.214,0.118,0.077,�k��,2.2,��
2022/07/11,11:10,0.150,0.139,0.220,0.213,0.213,0.118,0.075,�k��,2.5,��
2022/07/11,11:20,0.150,0.140,0.219,0.213,0.212,0.120,0.076,�k��,2.7,��
2022/07/11,11:30,0.151,0.140,0.223,0.213,0.212,0.119,0.076,�k��,2.5,��
2022/07/11,11:40,0.149,0.139,0.224,0.212,0.213,0.119,0.076,���k��,1.6,��
2022/07/11,11:50,0.149,0.139,0.223,0.212,0.213,0.118,0.076,-,CALM,��
2022/07/11,12:00,0.149,0.140,0.222,0.211,0.213,0.118,0.075,�k�k��,1.3,��
2022/07/11,12:10,0.148,0.139,0.221,0.213,0.213,0.118,0.076,�k�k��,1.5,��
2022/07/11,12:20,0.148,0.139,0.222,0.213,0.214,0.118,0.075,�k�k��,0.8,��
2022/07/11,12:30,0.148,0.139,0.221,0.212,0.216,0.118,0.076,�k�k��,1.2,��
2022/07/11,12:40,0.148,0.139,0.222,0.212,0.214,0.118,0.075,�k�k��,1.2,��
2022/07/11,12:50,0.148,0.139,0.221,0.213,0.215,0.118,0.075,���k��,1.3,��
2022/07/11,13:00,0.149,0.139,0.221,0.213,0.215,0.118,0.077,��,0.7,��
2022/07/11,13:10,0.150,0.140,0.221,0.214,0.215,0.119,0.076,���k��,1.5,��
2022/07/11,13:20,0.149,0.139,0.221,0.214,0.214,0.118,0.076,���k��,2.1,��
2022/07/11,13:30,0.149,0.140,0.222,0.213,0.216,0.118,0.075,��,2.3,��
2022/07/11,13:40,0.150,0.139,0.222,0.213,0.214,0.118,0.075,��,2.4,�L
2022/07/11,13:50,0.149,0.139,0.221,0.213,0.214,0.118,0.076,���k��,3.2,��
2022/07/11,14:00,0.149,0.138,0.223,0.213,0.214,0.119,0.076,���k��,3.3,��
2022/07/11,14:10,0.148,0.139,0.222,0.212,0.213,0.118,0.076,���k��,1.6,��
2022/07/11,14:20,0.150,0.139,0.221,0.213,0.213,0.118,0.076,��,1.7,��
2022/07/11,14:30,0.150,0.139,0.222,0.213,0.213,0.118,0.076,�k��,0.8,��
2022/07/11,14:40,0.149,0.140,0.223,0.213,0.213,0.118,0.075,���k��,1.1,��
2022/07/11,14:50,0.150,0.140,0.223,0.214,0.213,0.119,0.076,�k��,2.0,��
2022/07/11,15:00,0.149,0.139,0.221,0.214,0.214,0.119,0.076,���k��,1.6,��
2022/07/11,15:10,0.149,0.140,0.222,0.214,0.214,0.118,0.075,���k��,2.2,��
2022/07/11,15:20,0.150,0.140,0.222,0.214,0.213,0.119,0.075,�k�k��,1.0,��
2022/07/11,15:30,0.149,0.140,0.224,0.213,0.214,0.119,0.076,�k��,2.1,��
2022/07/11,15:40,0.149,0.140,0.223,0.213,0.214,0.119,0.077,��,3.4,��
2022/07/11,15:50,0.149,0.139,0.223,0.214,0.214,0.119,0.076,���k��,2.7,��
2022/07/11,16:00,0.151,0.140,0.222,0.213,0.215,0.119,0.075,�k��,1.1,��
2022/07/11,16:10,0.150,0.139,0.222,0.212,0.215,0.119,0.075,���k��,0.7,��
2022/07/11,16:20,0.151,0.139,0.221,0.214,0.214,0.119,0.077,���k��,1.8,��
2022/07/11,16:30,0.150,0.141,0.222,0.212,0.215,0.118,0.076,-,CALM,��
2022/07/11,16:40,0.150,0.141,0.225,0.215,0.214,0.119,0.076,���k��,0.6,��
2022/07/11,16:50,0.150,0.139,0.225,0.215,0.213,0.118,0.076,�k��,1.6,��
2022/07/11,17:00,0.149,0.140,0.223,0.214,0.214,0.119,0.076,�k,1.1,��
2022/07/11,17:10,0.150,0.139,0.223,0.214,0.214,0.119,0.076,�k��,0.8,��
2022/07/11,17:20,0.149,0.141,0.222,0.213,0.213,0.119,0.076,���k��,1.0,��
2022/07/11,17:30,0.149,0.141,0.225,0.216,0.213,0.120,0.075,���k��,1.4,��
2022/07/11,17:40,0.152,0.140,0.224,0.215,0.212,0.120,0.076,�k��,1.8,��
2022/07/11,17:50,0.152,0.140,0.223,0.214,0.212,0.119,0.076,�k�k��,1.0,��
2022/07/11,18:00,0.149,0.141,0.223,0.212,0.213,0.118,0.077,�k��,2.0,��
2022/07/11,18:10,0.150,0.140,0.225,0.213,0.214,0.119,0.075,�k��,2.0,��
2022/07/11,18:20,0.151,0.140,0.224,0.216,0.217,0.120,0.076,�k��,2.3,��
2022/07/11,18:30,0.151,0.140,0.222,0.216,0.215,0.119,0.076,�k��,1.8,��
2022/07/11,18:40,0.150,0.141,0.225,0.213,0.213,0.119,0.075,���k��,1.8,��
2022/07/11,18:50,0.151,0.139,0.224,0.216,0.213,0.117,0.077,�k��,1.5,��
2022/07/11,19:00,0.152,0.140,0.222,0.215,0.217,0.119,0.076,�k��,1.6,��
2022/07/11,19:10,0.150,0.142,0.223,0.214,0.214,0.119,0.076,�k��,1.2,��
2022/07/11,19:20,0.150,0.140,0.226,0.214,0.213,0.118,0.076,�k��,1.6,��
2022/07/11,19:30,0.151,0.139,0.223,0.216,0.214,0.120,0.077,�k��,1.7,��
2022/07/11,19:40,0.151,0.141,0.222,0.215,0.215,0.119,0.076,�k��,1.7,��
2022/07/11,19:50,0.150,0.139,0.224,0.213,0.214,0.118,0.076,�k��,1.4,�L
2022/07/11,20:00,0.149,0.139,0.224,0.214,0.213,0.119,0.076,�k�k��,1.1,�L
2022/07/11,20:10,0.151,0.139,0.223,0.216,0.215,0.119,0.076,�k�k��,1.2,�L
2022/07/11,20:20,0.152,0.140,0.222,0.213,0.216,0.119,0.076,�k�k��,1.2,�L
2022/07/11,20:30,0.149,0.139,0.224,0.214,0.213,0.119,0.076,�k�k��,1.4,�L
2022/07/11,20:40,0.150,0.140,0.223,0.214,0.215,0.118,0.077,�k�k��,1.6,��
2022/07/11,20:50,0.151,0.141,0.221,0.214,0.217,0.119,0.077,�k,1.3,��
2022/07/11,21:00,0.150,0.139,0.224,0.214,0.214,0.119,0.076,�k,1.5,��
2022/07/11,21:10,0.149,0.140,0.223,0.215,0.211,0.118,0.076,�k�k��,1.3,��
2022/07/11,21:20,0.152,0.141,0.222,0.213,0.215,0.119,0.077,�k�k��,1.2,��
2022/07/11,21:30,0.150,0.140,0.225,0.212,0.215,0.119,0.075,�k,1.7,��
2022/07/11,21:40,0.150,0.140,0.223,0.215,0.212,0.118,0.077,�k,2.2,��
2022/07/11,21:50,0.151,0.141,0.221,0.213,0.215,0.118,0.076,�k,1.4,��
2022/07/11,22:00,0.151,0.140,0.224,0.212,0.215,0.119,0.077,�k�k��,1.4,��
2022/07/11,22:10,0.150,0.139,0.224,0.214,0.213,0.118,0.075,�k�k��,1.1,��
2022/07/11,22:20,0.149,0.141,0.221,0.215,0.212,0.118,0.076,�k�k��,0.8,��
2022/07/11,22:30,0.153,0.140,0.223,0.213,0.216,0.119,0.076,�k��,1.7,�L
2022/07/11,22:40,0.151,0.139,0.224,0.213,0.215,0.119,0.076,�k��,2.1,�L
2022/07/11,22:50,0.149,0.139,0.222,0.215,0.213,0.117,0.075,�k��,1.2,�L
2022/07/11,23:00,0.151,0.141,0.224,0.213,0.215,0.119,0.076,�k�k��,1.2,�L
2022/07/11,23:10,0.152,0.140,0.223,0.212,0.215,0.119,0.075,�k�k��,1.4,��
2022/07/11,23:20,0.149,0.141,0.222,0.215,0.214,0.119,0.075,�k�k��,0.8,�L
2022/07/11,23:30,0.149,0.141,0.225,0.213,0.213,0.117,0.076,-,CALM,�L
2022/07/11,23:40,0.152,0.139,0.225,0.212,0.215,0.120,0.075,�k,0.9,�L
2022/07/11,23:50,0.149,0.141,0.222,0.215,0.214,0.118,0.075,�k�k��,0.9,��
